Regional Weather Roundup
Issued by NWS Glasgow, MT

Home | Current Version | Previous Version | Text Only | Print | Product List | Glossary On
Versions: 1 2 3 4 5 6 7 8 9 10 11 12 13 14 15 16 17 18 19 20 21 22 23 24 25 26 27 28 29 30 31 32 33 34 35 36 37 38 39 40 41 42 43 44 45 46 47 48 49 50
000
ASUS45 KGGW 251215
RWRGGW
HOURLY REGIONAL WEATHER ROUNDUP FOR NORTHEAST MONTANA
NATIONAL WEATHER SERVICE GLASGOW MONTANA
600 AM MDT SAT MAR 25 2017

NOTE: "FAIR" INDICATES FEW OR NO CLOUDS BELOW 12,000 FEET WITH NO
SIGNIFICANT WEATHER AND/OR OBSTRUCTIONS TO VISISBILITY.

NORTHEAST MONTANA


CITY           SKY/WX    TMP DP  RH WIND       PRES   REMARKS
GLASGOW        PTCLDY    48  31  51 W10       29.82R
6HR MIN TEMP:  43; 6HR MAX TEMP:  52;

PLENTYWOOD       N/A     42  33  70 SE10G20     N/A
WOLF POINT     MOCLDY    42  35  76 NW6       29.81R
JORDAN           N/A     41  33  73 NW6       29.85R
WINNETT          N/A     52  30  43 W13G26      N/A
SIDNEY         MOCLDY    44  34  67 S6        29.83R
GLENDIVE       CLOUDY    45  35  68 SW6       29.84R
MALTA            N/A     47  32  56 W6          N/A

FORT PECK REPORTS


CITY           SKY/WX    TMP DP  RH WIND       PRES   REMARKS
FORT PECK        N/A     47  32  56 SW8G17      N/A
THE PINES        N/A     48  29  47 CALM        N/A

SOUTHEAST MONTANA


CITY           SKY/WX    TMP DP  RH WIND       PRES   REMARKS
BILLINGS       MOCLDY    48  31  51 N12       29.91R
MILES CITY     CLOUDY    46  33  60 S5        29.85R
BAKER          PTCLDY    40  31  70 SE9       29.87R
LIVINGSTON     LGT RAIN  40  35  83 NW8       29.98R

CENTRAL MONTANA


CITY           SKY/WX    TMP DP  RH WIND       PRES   REMARKS
HAVRE          CLOUDY    43  31  62 SW16      29.85R
LEWISTOWN      CLOUDY    42  31  64 SW12      29.90R
GREAT FALLS    CLOUDY    40  25  55 SW14      29.90S
CUT BANK       MOCLDY    36  24  62 W16       29.87R
HELENA         CLOUDY    40  29  64 W14       29.99R
BUTTE          PTCLDY    34  24  67 NW5       30.01R
BOZEMAN        CLOUDY    40  37  89 SE7       29.99R

WESTERN MONTANA


CITY           SKY/WX    TMP DP  RH WIND       PRES   REMARKS
MISSOULA       CLOUDY    40  32  73 N6        30.04S
KALISPELL      NOT AVBL

NORTH DAKOTA


CITY           SKY/WX    TMP DP  RH WIND       PRES   REMARKS
WILLISTON      CLOUDY    43  33  68 S12       29.84S
DICKINSON      CLOUDY    33  29  85 S20       29.87S
MINOT          CLOUDY    32  30  92 SE12      29.96F
BISMARCK       CLOUDY    32  31  96 SE14      30.04S FOG

SOUTHERN SASKATCHEWAN


CITY           SKY/WX    TMP DP  RH WIND       PRES   REMARKS
REGINA         MOCLDY    36  32  87 SE21G26   29.72F
ESTEVAN        MOCLDY    36  32  87 SE12G18   29.85S
SWIFT CURRENT  CLEAR     41  30  65 SW17G23   29.69R




USA.gov is the U.S. government's official web portal to all federal, state and local government web resources and services.